Time,TemperatureF,DewpointF,PressureIn,WindDirection,WindDirectionDegrees,WindSpeedMPH,WindSpeedGustMPH,Humidity,HourlyPrecipIn,Conditions,Clouds,dailyrainin,SoftwareType,DateUTC
2014-02-14 00:14:00,42.7,38.0,29.85,West,268,14.0,17.0,83,0.00,,,0.08,weatherlink.com 1.10,2014-02-14 05:14:00,
2014-02-14 00:29:00,42.1,38.0,29.85,West,271,12.0,16.0,84,0.00,,,0.08,weatherlink.com 1.10,2014-02-14 05:29:00,
2014-02-14 00:44:00,42.0,38.0,29.85,West,269,14.0,16.0,84,0.00,,,0.08,weatherlink.com 1.10,2014-02-14 05:44:00,
2014-02-14 00:59:00,41.5,37.0,29.86,West,263,13.0,17.0,85,0.00,,,0.00,weatherlink.com 1.10,2014-02-14 05:59:00,
2014-02-14 01:15:00,41.7,38.0,29.86,WSW,258,15.0,19.0,85,0.00,,,0.00,weatherlink.com 1.10,2014-02-14 06:15:00,
2014-02-14 01:29:00,42.0,38.0,29.85,West,265,15.0,18.0,84,0.00,,,0.00,weatherlink.com 1.10,2014-02-14 06:29:00,
2014-02-14 01:43:00,41.9,37.0,29.86,West,260,18.0,18.0,84,0.00,,,0.00,weatherlink.com 1.10,2014-02-14 06:43:00,
2014-02-14 01:58:00,41.8,37.0,29.87,West,262,14.0,22.0,83,0.00,,,0.00,weatherlink.com 1.10,2014-02-14 06:58:00,
2014-02-14 02:13:00,41.6,37.0,29.88,WSW,257,14.0,20.0,82,0.00,,,0.00,weatherlink.com 1.10,2014-02-14 07:13:00,
2014-02-14 02:28:00,41.6,36.0,29.89,WSW,257,13.0,18.0,80,0.00,,,0.00,weatherlink.com 1.10,2014-02-14 07:28:00,
2014-02-14 02:43:00,41.4,35.0,29.89,West,263,11.0,17.0,79,0.00,,,0.00,weatherlink.com 1.10,2014-02-14 07:43:00,
2014-02-14 02:58:00,41.4,35.0,29.89,West,273,12.0,16.0,79,0.00,,,0.00,weatherlink.com 1.10,2014-02-14 07:58:00,
2014-02-14 03:13:00,41.8,35.0,29.89,West,270,14.0,19.0,78,0.01,,,0.01,weatherlink.com 1.10,2014-02-14 08:13:00,
2014-02-14 03:28:00,41.6,35.0,29.88,West,267,14.0,17.0,78,0.01,,,0.01,weatherlink.com 1.10,2014-02-14 08:28:00,
2014-02-14 03:43:00,41.5,35.0,29.88,West,275,12.0,17.0,78,0.01,,,0.01,weatherlink.com 1.10,2014-02-14 08:43:00,
2014-02-14 04:00:00,41.2,36.0,29.89,West,280,14.0,18.0,80,0.01,,,0.01,weatherlink.com 1.10,2014-02-14 09:00:00,
2014-02-14 04:13:00,41.0,35.0,29.90,West,275,12.0,17.0,79,0.00,,,0.01,weatherlink.com 1.10,2014-02-14 09:13:00,
2014-02-14 04:28:00,40.8,35.0,29.89,WNW,292,13.0,15.0,79,0.00,,,0.01,weatherlink.com 1.10,2014-02-14 09:28:00,
2014-02-14 04:43:00,40.6,35.0,29.90,WNW,282,11.0,14.0,79,0.00,,,0.01,weatherlink.com 1.10,2014-02-14 09:43:00,
2014-02-14 04:58:00,40.3,35.0,29.90,West,261,8.0,12.0,80,0.00,,,0.01,weatherlink.com 1.10,2014-02-14 09:58:00,
2014-02-14 05:14:00,40.3,35.0,29.90,West,269,10.0,13.0,80,0.00,,,0.01,weatherlink.com 1.10,2014-02-14 10:14:00,
2014-02-14 05:58:00,39.7,33.0,29.92,WSW,257,9.0,13.0,78,0.00,,,0.01,weatherlink.com 1.10,2014-02-14 10:58:00,
2014-02-14 06:14:00,39.9,33.0,29.92,WSW,257,10.0,13.0,77,0.00,,,0.01,weatherlink.com 1.10,2014-02-14 11:14:00,
2014-02-14 06:29:00,40.1,33.0,29.92,WSW,257,10.0,13.0,77,0.00,,,0.01,weatherlink.com 1.10,2014-02-14 11:29:00,
2014-02-14 06:44:00,39.8,33.0,29.93,WSW,251,8.0,11.0,76,0.00,,,0.01,weatherlink.com 1.10,2014-02-14 11:44:00,
2014-02-14 06:59:00,39.9,33.0,29.93,WSW,252,9.0,11.0,76,0.00,,,0.01,weatherlink.com 1.10,2014-02-14 11:59:00,
2014-02-14 07:14:00,39.8,33.0,29.93,West,261,9.0,11.0,77,0.00,,,0.01,weatherlink.com 1.10,2014-02-14 12:14:00,
2014-02-14 07:29:00,39.8,33.0,29.93,WSW,250,8.0,12.0,76,0.00,,,0.01,weatherlink.com 1.10,2014-02-14 12:29:00,
2014-02-14 07:45:00,40.3,33.0,29.94,West,263,11.0,13.0,76,0.00,,,0.01,weatherlink.com 1.10,2014-02-14 12:45:00,
2014-02-14 08:00:00,41.0,33.0,29.94,WSW,256,11.0,13.0,74,0.01,,,0.02,weatherlink.com 1.10,2014-02-14 13:00:00,
2014-02-14 08:15:00,41.9,34.0,29.94,West,274,10.0,13.0,73,0.01,,,0.02,weatherlink.com 1.10,2014-02-14 13:15:00,
2014-02-14 08:30:00,42.8,35.0,29.94,West,262,11.0,16.0,73,0.01,,,0.02,weatherlink.com 1.10,2014-02-14 13:30:00,
2014-02-14 08:45:00,43.7,35.0,29.94,West,275,11.0,15.0,72,0.01,,,0.02,weatherlink.com 1.10,2014-02-14 13:45:00,
2014-02-14 09:00:00,44.7,35.0,29.94,West,269,12.0,14.0,70,0.00,,,0.02,weatherlink.com 1.10,2014-02-14 14:00:00,
2014-02-14 09:15:00,45.5,36.0,29.95,WNW,285,11.0,13.0,70,0.00,,,0.02,weatherlink.com 1.10,2014-02-14 14:15:00,
2014-02-14 09:30:00,46.3,36.0,29.95,West,277,17.0,19.0,67,0.00,,,0.02,weatherlink.com 1.10,2014-02-14 14:30:00,
2014-02-14 09:45:00,47.4,36.0,29.95,West,274,12.0,18.0,66,0.00,,,0.02,weatherlink.com 1.10,2014-02-14 14:45:00,
2014-02-14 10:00:00,49.2,37.0,29.96,WSW,253,11.0,19.0,62,0.00,,,0.02,weatherlink.com 1.10,2014-02-14 15:00:00,
2014-02-14 10:15:00,50.3,37.0,29.95,WSW,258,14.0,18.0,60,0.00,,,0.02,weatherlink.com 1.10,2014-02-14 15:15:00,
2014-02-14 10:30:00,51.1,36.0,29.95,WSW,245,10.0,20.0,57,0.00,,,0.02,weatherlink.com 1.10,2014-02-14 15:30:00,
2014-02-14 10:45:00,51.4,38.0,29.95,West,272,15.0,19.0,60,0.00,,,0.02,weatherlink.com 1.10,2014-02-14 15:45:00,
2014-02-14 11:00:00,52.0,37.0,29.95,West,261,13.0,17.0,56,0.00,,,0.02,weatherlink.com 1.10,2014-02-14 16:00:00,
2014-02-14 11:15:00,52.4,36.0,29.94,WSW,241,12.0,16.0,54,0.00,,,0.02,weatherlink.com 1.10,2014-02-14 16:15:00,
2014-02-14 11:30:00,53.1,36.0,29.94,WSW,249,15.0,17.0,53,0.00,,,0.02,weatherlink.com 1.10,2014-02-14 16:30:00,
2014-02-14 11:45:00,53.7,34.0,29.93,WSW,250,15.0,17.0,48,0.00,,,0.02,weatherlink.com 1.10,2014-02-14 16:45:00,
2014-02-14 12:00:00,54.0,36.0,29.93,West,270,12.0,16.0,51,0.00,,,0.02,weatherlink.com 1.10,2014-02-14 17:00:00,
2014-02-14 12:15:00,55.1,34.0,29.92,WSW,247,11.0,17.0,45,0.00,,,0.02,weatherlink.com 1.10,2014-02-14 17:15:00,
2014-02-14 12:30:00,56.0,35.0,29.91,SW,219,11.0,14.0,46,0.00,,,0.02,weatherlink.com 1.10,2014-02-14 17:30:00,
2014-02-14 12:45:00,56.8,35.0,29.91,SW,236,12.0,17.0,44,0.00,,,0.02,weatherlink.com 1.10,2014-02-14 17:45:00,
2014-02-14 13:00:00,57.0,32.0,29.90,WSW,252,11.0,18.0,39,0.00,,,0.02,weatherlink.com 1.10,2014-02-14 18:00:00,
2014-02-14 13:15:00,57.2,41.0,29.90,South,176,11.0,18.0,55,0.00,,,0.02,weatherlink.com 1.10,2014-02-14 18:15:00,
2014-02-14 13:31:00,55.6,41.0,29.91,SSW,204,13.0,18.0,59,0.00,,,0.02,weatherlink.com 1.10,2014-02-14 18:31:00,
2014-02-14 13:46:00,55.3,42.0,29.90,SSW,202,4.0,17.0,61,0.00,,,0.02,weatherlink.com 1.10,2014-02-14 18:46:00,
2014-02-14 14:01:00,56.0,41.0,29.89,SW,221,11.0,17.0,58,0.00,,,0.02,weatherlink.com 1.10,2014-02-14 19:01:00,
2014-02-14 14:16:00,56.2,41.0,29.89,SSW,192,5.0,18.0,58,0.00,,,0.02,weatherlink.com 1.10,2014-02-14 19:16:00,
2014-02-14 14:31:00,55.4,44.0,29.89,South,178,9.0,19.0,65,0.00,,,0.02,weatherlink.com 1.10,2014-02-14 19:31:00,
2014-02-14 14:46:00,55.0,42.0,29.89,SW,221,16.0,21.0,62,0.00,,,0.02,weatherlink.com 1.10,2014-02-14 19:46:00,
2014-02-14 15:01:00,54.9,43.0,29.88,SW,214,14.0,18.0,64,0.00,,,0.02,weatherlink.com 1.10,2014-02-14 20:01:00,
2014-02-14 15:16:00,54.5,42.0,29.88,SSW,194,15.0,20.0,64,0.00,,,0.02,weatherlink.com 1.10,2014-02-14 20:16:00,
2014-02-14 15:31:00,54.5,42.0,29.88,SW,220,11.0,20.0,64,0.00,,,0.02,weatherlink.com 1.10,2014-02-14 20:31:00,
2014-02-14 15:46:00,54.9,43.0,29.88,SSW,205,12.0,21.0,64,0.00,,,0.02,weatherlink.com 1.10,2014-02-14 20:46:00,
2014-02-14 16:16:00,54.9,43.0,29.88,SW,219,15.0,18.0,64,0.00,,,0.02,weatherlink.com 1.10,2014-02-14 21:16:00,
2014-02-14 16:31:00,54.8,43.0,29.89,SW,218,14.0,20.0,65,0.00,,,0.02,weatherlink.com 1.10,2014-02-14 21:31:00,
2014-02-14 16:46:00,54.7,43.0,29.88,SSW,209,11.0,17.0,65,0.00,,,0.02,weatherlink.com 1.10,2014-02-14 21:46:00,
2014-02-14 17:01:00,53.0,43.0,29.88,SW,234,12.0,19.0,69,0.00,,,0.02,weatherlink.com 1.10,2014-02-14 22:01:00,
2014-02-14 17:16:00,52.6,43.0,29.88,SSW,197,9.0,17.0,71,0.00,,,0.02,weatherlink.com 1.10,2014-02-14 22:16:00,
2014-02-14 17:31:00,52.2,43.0,29.87,SW,224,8.0,15.0,72,0.00,,,0.02,weatherlink.com 1.10,2014-02-14 22:31:00,
2014-02-14 17:46:00,52.0,44.0,29.87,SSW,200,10.0,16.0,73,0.00,,,0.02,weatherlink.com 1.10,2014-02-14 22:46:00,
2014-02-14 18:01:00,51.8,44.0,29.87,SSW,205,8.0,15.0,75,0.00,,,0.02,weatherlink.com 1.10,2014-02-14 23:01:00,
2014-02-14 18:16:00,51.6,45.0,29.87,SW,227,14.0,15.0,77,0.00,,,0.02,weatherlink.com 1.10,2014-02-14 23:16:00,
2014-02-14 18:31:00,51.6,45.0,29.89,SW,214,6.0,17.0,78,0.00,,,0.02,weatherlink.com 1.10,2014-02-14 23:31:00,
2014-02-14 18:46:00,51.6,45.0,29.89,SSW,213,7.0,15.0,79,0.00,,,0.02,weatherlink.com 1.10,2014-02-14 23:46:00,
2014-02-14 19:01:00,51.6,45.0,29.88,SW,218,10.0,16.0,79,0.00,,,0.02,weatherlink.com 1.10,2014-02-15 00:01:00,
2014-02-14 19:16:00,51.7,45.0,29.89,SSW,213,9.0,15.0,79,0.00,,,0.02,weatherlink.com 1.10,2014-02-15 00:16:00,
2014-02-14 19:31:00,51.9,45.0,29.89,SSW,213,5.0,14.0,78,0.00,,,0.02,weatherlink.com 1.10,2014-02-15 00:31:00,
2014-02-14 19:46:00,52.0,46.0,29.88,SW,227,10.0,19.0,79,0.00,,,0.02,weatherlink.com 1.10,2014-02-15 00:46:00,
2014-02-14 20:01:00,52.3,46.0,29.88,WSW,250,8.0,17.0,78,0.00,,,0.02,weatherlink.com 1.10,2014-02-15 01:01:00,
2014-02-14 20:16:00,52.4,46.0,29.88,SW,214,14.0,19.0,78,0.00,,,0.02,weatherlink.com 1.10,2014-02-15 01:16:00,
2014-02-14 20:31:00,52.7,46.0,29.87,SSW,202,10.0,14.0,78,0.00,,,0.02,weatherlink.com 1.10,2014-02-15 01:31:00,
2014-02-14 20:46:00,53.2,45.0,29.85,SSW,195,8.0,15.0,75,0.00,,,0.02,weatherlink.com 1.10,2014-02-15 01:46:00,
2014-02-14 21:01:00,53.6,46.0,29.84,SSW,204,10.0,17.0,74,0.00,,,0.02,weatherlink.com 1.10,2014-02-15 02:01:00,
2014-02-14 21:16:00,53.8,46.0,29.84,SSW,212,9.0,14.0,74,0.00,,,0.02,weatherlink.com 1.10,2014-02-15 02:16:00,
2014-02-14 21:31:00,53.8,46.0,29.84,SW,229,8.0,15.0,74,0.00,,,0.02,weatherlink.com 1.10,2014-02-15 02:31:00,
2014-02-14 21:46:00,53.5,46.0,29.85,SW,230,12.0,15.0,75,0.00,,,0.02,weatherlink.com 1.10,2014-02-15 02:46:00,
2014-02-14 22:01:00,53.2,46.0,29.84,WSW,257,8.0,13.0,76,0.00,,,0.02,weatherlink.com 1.10,2014-02-15 03:01:00,
2014-02-14 22:16:00,53.3,46.0,29.82,SSW,196,7.0,14.0,75,0.00,,,0.02,weatherlink.com 1.10,2014-02-15 03:16:00,
2014-02-14 22:31:00,53.2,46.0,29.82,SW,217,7.0,13.0,76,0.00,,,0.02,weatherlink.com 1.10,2014-02-15 03:31:00,
2014-02-14 22:46:00,53.5,46.0,29.83,SW,230,9.0,18.0,76,0.00,,,0.02,weatherlink.com 1.10,2014-02-15 03:46:00,
2014-02-14 23:01:00,53.8,46.0,29.82,SW,230,8.0,17.0,75,0.00,,,0.02,weatherlink.com 1.10,2014-02-15 04:01:00,
2014-02-14 23:16:00,54.2,46.0,29.81,SW,229,12.0,18.0,74,0.00,,,0.02,weatherlink.com 1.10,2014-02-15 04:16:00,
2014-02-14 23:31:00,54.4,46.0,29.81,WSW,249,11.0,16.0,73,0.00,,,0.02,weatherlink.com 1.10,2014-02-15 04:31:00,
2014-02-14 23:46:00,54.2,46.0,29.80,SW,222,11.0,20.0,73,0.00,,,0.02,weatherlink.com 1.10,2014-02-15 04:46:00,